{"data":{"norad_id":68257,"intl_designator":"2026-054AB","name":"STARLINK-36745","alt_names":[],"object_type":"PAYLOAD","status":"ACTIVE","operator":null,"country":"US","launch_date":"2026-03-17","launch_site_code":"AFETR","launch_vehicle":null,"mission":null,"orbit_class":"UNKNOWN","rcs_meters":null,"size_class":null,"mass_kg":null,"dimensions":null,"purposes":["comms"],"wikipedia_slug":null,"has_3d_model":false,"image_url":null,"decayed_at":null,"tle_current":{"epoch":"2026-09-19T22:40:35.973120Z","epoch_age_seconds":99662,"freshness":"FRESH","line1":"1 68257U 26054AB  26262.94486080  .00018512  00000+0  55750-3 0  9993","line2":"2 68257  53.1590 104.5369 0001638 212.1896 147.9007 15.34409641 28878","mean_motion":15.34409641,"eccentricity":0.0001638,"inclination_deg":53.159,"raan_deg":104.5369,"arg_perigee_deg":212.1896,"mean_anomaly_deg":147.9007,"bstar":0.0005575,"rev_number":2887,"period_min":93.847168417264,"perigee_km":461.55406033573,"apogee_km":463.79511021106,"semimajor_km":6840.8115852734,"source":"CELESTRAK","updated_at":"2026-09-20T09:00:43.844589Z"}}}